{"data":{"norad_id":61709,"epoch":"2026-09-21T16:57:54.014688Z","epoch_age_seconds":84154,"freshness":"FRESH","line1":"1 61709U 24196C   26264.70687517  .00000412  00000+0  23344-4 0  9992","line2":"2 61709  53.1587 268.3130 0001305  83.6054 276.5097 15.34391431107202","mean_motion":15.34391431,"eccentricity":0.0001305,"inclination_deg":53.1587,"raan_deg":268.313,"arg_perigee_deg":83.6054,"mean_anomaly_deg":276.5097,"bstar":2.3344e-5,"rev_number":10720,"period_min":93.848282185825,"perigee_km":461.83597622442,"apogee_km":463.62144217452,"semimajor_km":6840.8657091995,"source":"CELESTRAK","updated_at":"2026-09-22T09:00:49.410125Z"}}